Regional Weather Roundup
Issued by NWS Huntsville, AL

Home | Current Version | Previous Version | Text Only | Print | Product List | Glossary On
Versions: 1 2 3 4 5 6 7 8 9 10 11 12 13 14 15 16 17 18 19 20 21 22 23 24 25 26
000
ASUS44 KHUN 120610
RWRHUN

WEATHER ROUNDUP FOR THE TENNESSEE VALLEY
NATIONAL WEATHER SERVICE HUNTSVILLE AL
1200 AM CST TUE DEC 12 2017

ALZ001>004-120700-
NORTHWEST ALABAMA

CITY           SKY/WX    TMP DP  RH WIND       PRES   REMARKS
COURTLAND HCN    N/A     50 N/A N/A W7          N/A
RUSSELLVILLE     N/A     48 N/A N/A MISG        N/A
SHOALS AIRPORT PTCLDY    51  31  46 NW8       29.94S
6HR MIN TEMP:  49; 6HR MAX TEMP:  55;

SHOALS TVA RES   N/A     50 N/A N/A MISG        N/A
$$

ALZ005>007-016-120700-
NORTH CENTRAL ALABAMA

CITY           SKY/WX    TMP DP  RH WIND       PRES   REMARKS
CULLMAN AG STN   N/A     39 N/A N/A CALM        N/A
DECATUR AP     PTCLDY    49  35  58 W5        29.93S
6HR MIN TEMP:  46; 6HR MAX TEMP:  51;

HUNTSVILLE AP  PTCLDY    44  34  67 CALM      29.92S
6HR MIN TEMP:  44; 6HR MAX TEMP:  49;

MERIDIANVILLE  PTCLDY    48  32  53 SW8       29.92S
REDSTONE ARSN  PTCLDY    44  33  65 W3        29.92S
VINEMONT AP    FAIR      47  32  55 CALM      29.95R
$$

ALZ008>010-120700-
NORTHEAST ALABAMA

CITY           SKY/WX    TMP DP  RH WIND       PRES   REMARKS
ALBERTVILLE    PTCLDY    45  39  81 W8        29.92S
FORT PAYNE     CLOUDY    30  28  93 CALM      29.92S
SCOTTSBORO AP  CLOUDY    45  36  70 SW7       29.91F
SCOTTSBORO HCN   N/A     36 N/A N/A MISG        N/A
VALLEY HEAD      N/A     30 N/A N/A MISG        N/A
$$

TNZ076-096-097-120700-
SOUTHEASTERN MIDDLE TENNESSEE

CITY           SKY/WX    TMP DP  RH WIND       PRES   REMARKS
TULLAHOMA      CLEAR     45  32  61 W7        29.89S
WINCHESTER     CLEAR     50  32  50 W8        29.90S
$$

...SURROUNDING SITES...

CITY           SKY/WX    TMP DP  RH WIND       PRES   REMARKS
ATLANTA        PTCLDY    48  37  65 SW9       29.93F
ANNISTON       CLEAR     35  32  88 SW7       29.95F WCI  29
BIRMINGHAM     CLEAR     47  35  63 SW3       29.95F
CHATTANOOGA    CLEAR     42  33  70 SW12      29.89F
CORINTH        FAIR      50  28  43 NW6       29.96S
DALTON         CLEAR     43  34  70 SE6       29.93F
GADSDEN        CLEAR     33  32  96 CALM      29.93F
GOLDEN TRNGL   NOT AVBL
HALEYVILLE     FAIR      47  33  58 W5        29.95S
JACKSON TN     PTCLDY    49  28  44 NW9       29.98R
MEMPHIS        CLOUDY    50  26  39 N8        30.00S
NASHVILLE      PTCLDY    49  26  41 NW6       29.91S
OXFORD MS      FAIR      52  27  37 NW8       30.00S
ROME           CLEAR     33  32  96 S5        29.91F WCI  29
SAVANNAH       CLEAR     48  28  46 CALM      29.94F
SELMER         CLEAR     48  27  43 NW5       29.95S
TUPELO         CLOUDY    54  30  40 NW9       29.96F
TUSCALOOSA     CLEAR     37  35  92 CALM      29.95F
$$

...GULF COAST WEATHER...

CITY           SKY/WX    TMP DP  RH WIND       PRES   REMARKS
GULFPORT       CLEAR     52  47  83 W8        30.09F
PASCAGOULA     CLEAR     50  45  83 SW5       30.08F
MOBILE         CLEAR     50  45  83 W5        30.08F
GULF SHORES    CLEAR     52  49  90 W9        30.08F
PENSACOLA      CLEAR     56  49  77 W8        30.07F
DESTIN         CLEAR     64  49  57 W9        30.06F
PANAMA CITY    CLEAR     63  48  59 W13       30.07F
APPALACHICOLA  CLEAR     46  45  96 SW3       30.09F
$$





USA.gov is the U.S. government's official web portal to all federal, state and local government web resources and services.